< < Back
Terminal Aerodrome Forecast


Current Version              Previous Versions:   1  2  3  4  5  6  7  8  9  

Terminal Aerodrome Forecast

713
FTUS42 KJAX 202341
TAFGNV
TAF
KGNV 202341Z 2100/2124 20006KT P6SM VCSH BKN100 OVC150
     FM210900 24006KT P6SM SCT010 BKN250
     FM211300 35009KT P6SM FEW025 SCT250=

Latest METAR

054
SAUS70 KWBC 210300 RRA
MTRGNV
METAR KGNV 210253Z AUTO 18003KT 10SM CLR 17/16 A2992 RMK AO2 SLP129
T01720161 51019 $


USA.gov is the U.S. government's official web portal to all federal, state and local government web resources and services.